Weather History for Oakland, CA

Change the Weather History Date:

Wednesday, February 13, 2013

  Actual Average Record
Temperature  
Mean Temperature 52 °F 52 °F  
Max Temperature 62 °F 60 °F 71 °F (2006)
Min Temperature 41 °F 44 °F 28 °F (1949)
Degree Days  
Heating Degree Days 13 13  
Month to date heating degree days 189 177  
Since 1 July heating degree days 1726 1836  
Cooling Degree Days 0 0  
Month to date cooling degree days 0 0  
Year to date cooling degree days 0 0  
Growing Degree Days 1 (Base 50)    
Moisture  
Dew Point 48 °F    
Average Humidity 81    
Maximum Humidity 100    
Minimum Humidity 62    
Precipitation  
Precipitation 0.00 in 0.14 in 2.04 in (2000)
Month to date precipitation 0.24 1.63  
Year to date precipitation 0.53 5.62  
Since 1 July precipitation 11.52 13.21  
Sea Level Pressure  
Sea Level Pressure 30.32 in    
Wind  
Wind Speed 3 mph (WNW)    
Max Wind Speed 12 mph    
Max Gust Speed 28 mph    
Visibility 6 miles    
Events Fog    
T = Trace of Precipitation, MM = Missing Value Source: NWS Daily Summary

Daily Weather History Graph

Daily Weather History Graph

Search for Another Location

Airport:

Trip Planner

Search our weather history database for the weather conditions in past years. The results will help you decide how hot, cold, wet, or windy it might be!

Date:

Astronomy

Feb. 13, 2013 Rise Set
Actual Time 7:00 AM PST 5:46 PM PST
Civil Twilight 6:33 AM PST 6:13 PM PST
Nautical Twilight 6:02 AM PST 6:44 PM PST
Astronomical Twilight 5:32 AM PST 7:14 PM PST
Moon 8:37 AM PST (2/13) 9:48 PM PST (2/13)
Length of Visible Light 11h 39m
Length of Day
10h 45m
Waxing Crescent, 14% of the Moon is Illuminated
Feb 13
Waxing Crescent
Feb 17
First Quarter
Feb 25
Full
Mar 4
Last Quarter
Mar 11
New

Hourly Weather History & Observations

Time (PST) Temp. Windchill Dew Point Humidity Pressure Visibility Wind Dir Wind Speed Gust Speed Precip Events Conditions
12:53 AM 44.1 °F - 44.1 °F 100% 30.35 in 9.0 mi Calm Calm - N/A   Clear
1:53 AM 42.1 °F - 42.1 °F 100% 30.35 in 10.0 mi Calm Calm - N/A   Clear
2:53 AM 43.0 °F 41.3 °F 43.0 °F 100% 30.35 in 10.0 mi NE 3.5 mph - N/A   Partly Cloudy
3:53 AM 43.0 °F - 43.0 °F 100% 30.34 in 10.0 mi Calm Calm - N/A   Partly Cloudy
4:53 AM 42.1 °F 40.2 °F 42.1 °F 100% 30.34 in 8.0 mi NE 3.5 mph - N/A   Partly Cloudy
4:57 AM 42.8 °F 41.1 °F 42.8 °F 100% 30.34 in 8.0 mi ENE 3.5 mph - N/A   Partly Cloudy
5:31 AM 42.8 °F 41.1 °F 42.8 °F 100% 30.34 in 8.0 mi ENE 3.5 mph - N/A   Mostly Cloudy
5:53 AM 43.0 °F - 43.0 °F 100% 30.34 in 8.0 mi Calm Calm - N/A   Overcast
6:53 AM 46.0 °F - 46.0 °F 100% 30.34 in 3.0 mi Calm Calm - N/A   Overcast
6:57 AM 46.4 °F - 46.4 °F 100% 30.34 in 2.5 mi Calm Calm - N/A   Overcast
7:24 AM 44.6 °F - 44.6 °F 100% 30.35 in 1.0 mi Calm Calm - N/A   Overcast
7:53 AM 46.0 °F - 46.0 °F 100% 30.36 in 1.0 mi Calm Calm - N/A   Overcast
8:00 AM 44.6 °F - 44.6 °F 100% 30.36 in 1.0 mi Calm Calm - N/A   Overcast
8:18 AM 48.2 °F - 46.4 °F 93% 30.36 in 0.8 mi Calm Calm - N/A   Overcast
8:41 AM 48.2 °F - 48.2 °F 100% 30.36 in 0.5 mi Calm Calm - N/A Fog Fog
8:53 AM 48.0 °F - 48.0 °F 100% 30.36 in 0.5 mi Calm Calm - N/A Fog Fog
9:37 AM 48.2 °F - 48.2 °F 100% 30.36 in 1.0 mi Calm Calm - N/A   Overcast
9:53 AM 48.9 °F - 48.9 °F 100% 30.37 in 1.0 mi Variable 6.9 mph - N/A   Overcast
10:53 AM 50.0 °F - 50.0 °F 100% 30.37 in 1.0 mi West 4.6 mph - N/A   Overcast
11:06 AM 50.0 °F - 50.0 °F 100% 30.37 in 2.0 mi West 5.8 mph - N/A   Mostly Cloudy
11:18 AM 51.8 °F - 51.8 °F 100% 30.36 in 3.0 mi WNW 5.8 mph - N/A   Scattered Clouds
11:31 AM 51.8 °F - 51.8 °F 100% 30.35 in 2.0 mi West 5.8 mph - N/A   Mostly Cloudy
11:40 AM 51.8 °F - 51.8 °F 100% 30.35 in 2.0 mi West 5.8 mph - N/A   Partly Cloudy
11:53 AM 53.1 °F - 51.1 °F 93% 30.34 in 2.0 mi Variable 4.6 mph - N/A   Partly Cloudy
12:28 PM 55.4 °F - 48.2 °F 77% 30.32 in 5.0 mi Calm Calm - N/A   Haze
12:53 PM 57.9 °F - 44.1 °F 60% 30.31 in 6.0 mi West 4.6 mph - N/A   Haze
1:53 PM 59.0 °F - 52.0 °F 78% 30.28 in 7.0 mi West 5.8 mph - N/A   Clear
2:53 PM 60.1 °F - 50.0 °F 69% 30.27 in 8.0 mi West 5.8 mph - N/A   Clear
3:53 PM 60.1 °F - 52.0 °F 75% 30.26 in 10.0 mi WNW 5.8 mph - N/A   Partly Cloudy
4:53 PM 57.9 °F - 48.9 °F 72% 30.25 in 10.0 mi NW 8.1 mph - N/A   Partly Cloudy
5:53 PM 53.1 °F - 51.1 °F 93% 30.24 in 10.0 mi WNW 6.9 mph - N/A   Partly Cloudy
6:53 PM 52.0 °F - 52.0 °F 100% 30.25 in 10.0 mi WNW 5.8 mph - N/A   Partly Cloudy
7:53 PM 51.1 °F - 51.1 °F 100% 30.25 in 10.0 mi WNW 8.1 mph - N/A   Partly Cloudy
8:53 PM 51.1 °F - 51.1 °F 100% 30.25 in 10.0 mi NNW 3.5 mph - N/A   Partly Cloudy
9:53 PM 48.9 °F - 48.9 °F 100% 30.25 in 10.0 mi WNW 3.5 mph - N/A   Partly Cloudy
10:53 PM 48.0 °F - 48.0 °F 100% 30.25 in 10.0 mi Calm Calm - N/A Fog Shallow Fog
11:48 PM 46.4 °F - 46.4 °F 100% 30.25 in 8.0 mi Calm Calm - N/A Fog Shallow Fog
11:53 PM 46.9 °F - 46.9 °F 100% 30.25 in 8.0 mi Calm Calm - N/A   Partly Cloudy